Regional Weather Roundup
Issued by NWS

Home | Current Version | Previous Version | Text Only | Print | Product List | Glossary Off
Versions: 1 2 3 4 5 6 7 8 9 10 11 12 13 14 15 16 17 18 19 20 21 22 23 24 25 26 27 28 29 30 31 32 33 34 35 36 37 38 39 40 41 42 43 44 45 46 47 48 49 50

000
ASUS43 KLSX 292207
RWRMO

WEATHER SUMMARY FOR MISSOURI
NATIONAL WEATHER SERVICE SPRINGFIELD MO
500 PM CDT SAT AUG 29 2015

NOTE: "FAIR" INDICATES FEW OR NO CLOUDS BELOW 12,000 FEET WITH NO
       SIGNIFICANT WEATHER AND/OR OBSTRUCTIONS TO VISIBILITY.
       CURRENT SKY AND/OR WEATHER CONDITIONS ARE NOT AVAILABLE FOR
       CHILLICOTHE AND FARMINGTON.

MOZ001>031-035>038-043-044-053-054-292300-
...NORTHERN AND WESTERN MISSOURI...

CITY           SKY/WX    TMP DP  RH WIND       PRES   REMARKS
KANSAS CTY INT CLOUDY    75  68  78 N8        30.01R
KANSAS C DTWN  CLOUDY    79  67  66 NW3       29.98F
LEE`S SUMMIT   CLOUDY    78  68  71 CALM      30.00S
ST JOSEPH      CLOUDY    73  66  78 N12       30.02R
CHILLICOTHE      N/A     80  70  71 MISG      29.99S
KIRKSVILLE     CLOUDY    75  69  81 NE3       30.01R

$$
MOZ066>068-077>081-088>096-101>105-292300-
...SOUTHWEST MISSOURI...

CITY           SKY/WX    TMP DP  RH WIND       PRES   REMARKS
SPRINGFIELD    CLOUDY    81  68  64 MISG      29.98F
JOPLIN         CLOUDY    80  69  69 W6        29.98F

$$
MOZ032>034-039>042-045>050-055>058-069>072-292300-
...CENTRAL MISSOURI...

CITY           SKY/WX    TMP DP  RH WIND       PRES   REMARKS
COLUMBIA       CLOUDY    80  67  64 SW7       29.98F
JEFFERSON CITY CLOUDY    83  66  56 W7        29.96F
ROLLA          MOSUNNY   81  66  60 S12       29.99S
SEDALIA        CLOUDY    80  68  66 S3        29.99F
WHITEMAN AFB   CLOUDY    80  69  67 SW3       29.97F
OSAGE BEACH    CLOUDY    81  66  61 W3        29.99S

$$
MOZ051-052-059>065-292300-
...EAST CENTRAL MISSOURI...

CITY           SKY/WX    TMP DP  RH WIND       PRES   REMARKS
ST LOUIS INTL  PTSUNNY   83  66  56 SE6       29.99S
SPIRIT OF STL  PTSUNNY   83  69  62 S7        29.97S
ST CHARLES     PTSUNNY   82  69  64 S6        29.97S

$$
MOZ072>076-082>087-097>100-106>115-292300-
...SOUTH CENTRAL AND SOUTHEAST MISSOURI...

CITY           SKY/WX    TMP DP  RH WIND       PRES   REMARKS
CAPE GIRARDEAU CLOUDY    80  69  69 SW3       30.00F
FARMINGTON     CLOUDY    77  66  69 S8        30.04S
POPLAR BLUFF   CLOUDY    81  64  56 CALM      30.00F
WEST PLAINS    PTSUNNY   76  67  73 SE7       30.03F

$$



USA.gov is the U.S. government's official web portal to all federal, state and local government web resources and services.